CW7104 Weather Reports


time (UTC)temp
F
wind
direction
speed
knots
gust
knots
rain 1hr
in
rain 24hr
in
rain mn
in
humidity
%
barometer
mb
20260905201404 95 317 6.1 20.9 0.00 0.00 0.00 46 1010.8
20260905200904 100 344 0.9 10.4 0.00 0.00 0.00 40 1010.7
20260905200405 101 279 0.0 0.0 0.00 0.00 0.00 38 1010.4
20260905195404 103 234 0.0 0.0 0.00 0.00 0.00 36 1010.3
20260905194904 103 223 0.9 5.2 0.00 0.00 0.00 37 1010.3
20260905194405 102 224 1.7 5.2 0.00 0.00 0.00 38 1010.5
20260905193904 101 187 2.6 7.0 0.00 0.00 0.00 39 1010.5
20260905193404 101 278 0.9 7.0 0.00 0.00 0.00 37 1010.6
20260905192904 102 253 4.3 11.3 0.00 0.00 0.00 37 1010.7
20260905192404 102 237 0.0 0.0 0.00 0.00 0.00 37 1010.8
20260905191905 102 267 0.0 0.0 0.00 0.00 0.00 40 1010.9
20260905191404 101 184 1.7 5.2 0.00 0.00 0.00 38 1011.0
20260905190904 101 211 0.9 6.1 0.00 0.00 0.00 39 1011.1
20260905190405 100 240 0.9 4.3 0.00 0.00 0.00 40 1011.1
20260905185904 101 282 0.9 4.3 0.00 0.00 0.00 40 1011.1
20260905185404 100 269 1.7 6.1 0.00 0.00 0.00 40 1011.2
20260905184405 101 240 0.0 7.0 0.00 0.00 0.00 40 1011.3
20260905183904 101 276 1.7 8.7 0.00 0.00 0.00 40 1011.4
20260905183405 100 181 2.6 7.0 0.00 0.00 0.00 41 1011.4
20260905182904 100 199 0.9 4.3 0.00 0.00 0.00 41 1011.4
20260905182404 99 253 0.9 6.1 0.00 0.00 0.00 41 1011.5
20260905181404 100 260 2.6 7.0 0.00 0.00 0.00 40 1011.7
20260905180904 99 220 0.9 7.0 0.00 0.00 0.00 41 1011.7
20260905175404 99 314 0.0 0.0 0.00 0.00 0.00 43 1012.1
20260905174904 99 267 0.0 2.6 0.00 0.00 0.00 45 1012.0
20260905174404 98 267 0.0 5.2 0.00 0.00 0.00 45 1012.0
20260905173904 98 273 0.9 5.2 0.00 0.00 0.00 46 1012.1
20260905172904 98 334 0.0 0.0 0.00 0.00 0.00 43 1012.1
20260905172404 98 250 0.0 0.9 0.00 0.00 0.00 44 1012.2
20260905171904 98 221 0.0 7.0 0.00 0.00 0.00 43 1012.4
20260905171404 98 264 0.0 5.2 0.00 0.00 0.00 45 1012.4
20260905170904 98 274 0.9 6.1 0.00 0.00 0.00 45 1012.4
20260905170404 98 296 0.0 0.9 0.00 0.00 0.00 46 1012.5
20260905165404 98 278 0.9 4.3 0.00 0.00 0.00 45 1012.6
20260905164904 97 307 0.0 2.6 0.00 0.00 0.00 45 1012.7
20260905164403 97 251 1.7 5.2 0.00 0.00 0.00 45 1012.8
20260905163904 97 290 0.9 6.1 0.00 0.00 0.00 46 1012.8
20260905163404 97 349 0.9 7.8 0.00 0.00 0.00 48 1013.0
20260905162904 97 351 0.0 5.2 0.00 0.00 0.00 47 1013.1
20260905161904 96 269 0.0 1.7 0.00 0.00 0.00 49 1013.2
20260905161404 96 263 0.9 6.1 0.00 0.00 0.00 49 1013.2
20260905160904 96 24 1.7 6.1 0.00 0.00 0.00 51 1013.2
20260905160404 95 222 1.7 6.1 0.00 0.00 0.00 51 1013.2
20260905155904 95 341 0.9 5.2 0.00 0.00 0.00 51 1013.3
20260905155404 95 275 2.6 5.2 0.00 0.00 0.00 51 1013.3
20260905154904 94 274 1.7 6.1 0.00 0.00 0.00 52 1013.3
20260905154404 95 269 2.6 7.0 0.00 0.00 0.00 52 1013.2
20260905153904 95 259 0.0 5.2 0.00 0.00 0.00 52 1013.2
20260905152905 94 263 0.0 2.6 0.00 0.00 0.00 52 1013.2
20260905152404 94 246 0.0 1.7 0.00 0.00 0.00 54 1013.2
20260905151903 93 236 1.7 7.8 0.00 0.00 0.00 54 1013.2
20260905151404 93 230 0.0 5.2 0.00 0.00 0.00 56 1013.2
20260905150904 92 249 0.9 4.3 0.00 0.00 0.00 58 1013.2
20260905150404 91 266 1.7 4.3 0.00 0.00 0.00 57 1013.2
20260905145904 91 258 1.7 6.1 0.00 0.00 0.00 59 1013.3
20260905144404 89 262 0.0 0.0 0.00 0.00 0.00 62 1013.3
20260905143404 89 265 0.9 4.3 0.00 0.00 0.00 61 1013.4
20260905142904 88 263 0.0 0.0 0.00 0.00 0.00 63 1013.5
20260905142404 87 244 0.0 0.0 0.00 0.00 0.00 65 1013.5
20260905141904 87 242 0.0 0.9 0.00 0.00 0.00 67 1013.5
20260905141404 86 244 0.0 2.6 0.00 0.00 0.00 68 1013.6
20260905140904 85 224 0.0 0.0 0.00 0.00 0.00 71 1013.6
20260905135404 83 224 0.0 0.0 0.00 0.00 0.00 76 1013.6
20260905134904 82 223 0.0 0.0 0.00 0.00 0.00 78 1013.6
20260905134404 82 224 0.0 0.0 0.00 0.00 0.00 79 1013.6
20260905133904 81 225 0.0 0.0 0.00 0.00 0.00 80 1013.6
20260905133403 80 225 0.0 0.0 0.00 0.00 0.00 81 1013.7
20260905132904 79 225 0.0 0.0 0.00 0.00 0.00 82 1013.7
20260905132404 79 225 0.0 0.0 0.00 0.00 0.00 82 1013.7
20260905131904 78 225 0.0 0.0 0.00 0.00 0.00 82 1013.8
20260905131404 78 225 0.0 0.0 0.00 0.00 0.00 82 1013.8
20260905130903 77 225 0.0 0.0 0.00 0.00 0.00 82 1013.8
20260905130403 77 225 0.0 0.0 0.00 0.00 0.00 82 1013.7
20260905125904 76 225 0.0 0.0 0.00 0.00 0.00 82 1013.8
20260905125403 76 225 0.0 0.0 0.00 0.00 0.00 82 1013.8
20260905124904 75 225 0.0 0.0 0.00 0.00 0.00 82 1013.9
20260905124404 75 225 0.0 0.0 0.00 0.00 0.00 82 1013.8
20260905123904 75 225 0.0 0.0 0.00 0.00 0.00 82 1013.8
20260905123403 74 225 0.0 0.0 0.00 0.00 0.00 82 1013.7
20260905122404 74 225 0.0 0.0 0.00 0.00 0.00 82 1013.8
20260905121904 74 225 0.0 0.0 0.00 0.00 0.00 82 1013.8
20260905121404 74 225 0.0 0.0 0.00 0.00 0.00 82 1013.7
20260905120904 74 225 0.0 0.0 0.00 0.00 0.00 82 1013.6
20260905120404 74 225 0.0 0.0 0.00 0.00 0.00 82 1013.5
20260905115903 73 225 0.0 0.0 0.00 0.00 0.00 82 1013.5
20260905115404 73 225 0.0 0.0 0.00 0.00 0.00 81 1013.4
20260905114904 73 225 0.0 0.0 0.00 0.00 0.00 81 1013.4
20260905114403 73 225 0.0 0.0 0.00 0.00 0.00 81 1013.4
20260905113404 73 225 0.0 0.0 0.00 0.00 0.00 82 1013.3
20260905112903 73 225 0.0 0.0 0.00 0.00 0.00 82 1013.2
20260905112403 73 225 0.0 0.0 0.00 0.00 0.00 81 1013.2
20260905111404 74 225 0.0 0.0 0.00 0.00 0.00 81 1013.1
20260905110904 74 225 0.0 0.0 0.00 0.00 0.00 81 1013.0
20260905110403 74 225 0.0 0.0 0.00 0.00 0.00 81 1013.0
20260905105903 74 225 0.0 0.0 0.00 0.00 0.00 81 1013.0
20260905104903 74 225 0.0 0.0 0.00 0.00 0.00 81 1013.0
20260905103404 74 225 0.0 0.0 0.00 0.00 0.00 81 1012.9
20260905102903 74 225 0.0 0.0 0.00 0.00 0.00 81 1012.8
20260905100904 74 225 0.0 0.0 0.00 0.00 0.00 81 1012.7
20260905100404 74 225 0.0 0.0 0.00 0.00 0.00 81 1012.7
20260905095903 74 225 0.0 0.0 0.00 0.00 0.00 80 1012.7
20260905095403 74 225 0.0 0.0 0.00 0.00 0.00 80 1012.5
20260905094403 75 225 0.0 0.0 0.00 0.00 0.00 80 1012.5
20260905093403 75 225 0.0 0.0 0.00 0.00 0.00 80 1012.5
20260905092903 75 225 0.0 0.0 0.00 0.00 0.00 80 1012.5
20260905092404 75 225 0.0 0.0 0.00 0.00 0.00 80 1012.5
20260905091903 75 225 0.0 0.0 0.00 0.00 0.00 80 1012.4
20260905091404 75 225 0.0 0.0 0.00 0.00 0.00 80 1012.4
20260905090905 75 225 0.0 0.0 0.00 0.00 0.00 80 1012.4
20260905090405 75 225 0.0 0.0 0.00 0.00 0.00 79 1012.4
20260905085905 75 225 0.0 0.0 0.00 0.00 0.00 80 1012.3
20260905085406 75 225 0.0 0.0 0.00 0.00 0.00 80 1012.3
20260905084905 75 225 0.0 0.0 0.00 0.00 0.00 79 1012.3
20260905083405 76 225 0.0 0.0 0.00 0.00 0.00 79 1012.4
20260905082905 76 225 0.0 0.0 0.00 0.00 0.00 79 1012.4
20260905082405 76 225 0.0 0.0 0.00 0.00 0.00 79 1012.4
20260905081905 76 225 0.0 0.0 0.00 0.00 0.00 79 1012.5
20260905080905 76 225 0.0 0.0 0.00 0.00 0.00 78 1012.6
20260905080405 76 225 0.0 0.0 0.00 0.00 0.00 78 1012.5
20260905075905 76 225 0.0 0.0 0.00 0.00 0.00 78 1012.6
20260905075405 76 225 0.0 0.0 0.00 0.00 0.00 78 1012.6
20260905074905 77 225 0.0 0.0 0.00 0.00 0.00 78 1012.6
20260905074405 77 225 0.0 0.0 0.00 0.00 0.00 78 1012.5
20260905073905 77 225 0.0 0.0 0.00 0.00 0.00 78 1012.5
20260905073405 77 225 0.0 0.0 0.00 0.00 0.00 78 1012.5
20260905072906 77 225 0.0 0.0 0.00 0.00 0.00 78 1012.5
20260905072405 77 225 0.0 0.0 0.00 0.00 0.00 78 1012.6
20260905071905 78 225 0.0 0.0 0.00 0.00 0.00 77 1012.6
20260905070905 78 225 0.0 0.0 0.00 0.00 0.00 77 1012.6
20260905070405 78 225 0.0 0.0 0.00 0.00 0.00 77 1012.8
20260905065905 78 225 0.0 0.0 0.00 0.00 0.00 76 1012.7
20260905065405 78 225 0.0 0.0 0.00 0.00 0.00 76 1012.7
20260905064905 78 225 0.0 0.0 0.00 0.00 0.00 75 1012.6
20260905064405 79 225 0.0 0.0 0.00 0.00 0.00 75 1012.6
20260905063406 79 225 0.0 0.0 0.00 0.00 0.00 74 1012.7
20260905062905 79 225 0.0 0.0 0.00 0.00 0.00 74 1012.7
20260905061905 80 225 0.0 0.0 0.00 0.00 0.00 74 1012.7
20260905060906 80 225 0.0 0.0 0.00 0.00 0.00 73 1012.7
20260905060405 80 225 0.0 0.0 0.00 0.00 0.00 73 1012.7
20260905055905 80 225 0.0 0.0 0.00 0.00 0.00 73 1012.7
20260905055405 80 225 0.0 0.0 0.00 0.00 0.00 73 1012.8
20260905054905 80 225 0.0 0.0 0.00 0.00 0.00 73 1012.8
20260905054405 80 225 0.0 0.0 0.00 0.00 0.00 73 1012.9
20260905053905 80 225 0.0 0.0 0.00 0.00 0.00 73 1012.9
20260905052905 80 225 0.0 0.0 0.00 0.00 0.00 72 1013.0
20260905052405 81 225 0.0 0.0 0.00 0.00 0.00 72 1013.0
20260905051905 81 225 0.0 0.0 0.00 0.00 0.00 71 1013.0
20260905051404 81 225 0.0 0.0 0.00 0.00 0.00 71 1013.0
20260905050905 81 225 0.0 0.0 0.00 0.00 0.00 70 1013.0
20260905050405 82 225 0.0 0.0 0.00 0.00 0.00 69 1012.9
20260905045905 82 225 0.0 0.0 0.00 0.00 0.00 69 1012.9
20260905045405 82 225 0.0 0.0 0.00 0.00 0.00 69 1012.9
20260905043905 82 217 0.0 0.0 0.00 0.00 0.00 68 1012.8
20260905043405 82 217 0.0 0.0 0.00 0.00 0.00 68 1012.8
20260905042905 82 217 0.0 0.0 0.00 0.00 0.00 69 1012.7
20260905042405 82 217 0.0 0.0 0.00 0.00 0.00 69 1012.8
20260905041905 82 217 0.0 0.0 0.00 0.00 0.00 69 1012.8
20260905041405 83 217 0.0 0.0 0.00 0.00 0.00 69 1012.9
20260905040905 83 217 0.0 0.0 0.00 0.00 0.00 68 1013.0
20260905035905 85 217 0.0 0.0 0.00 0.00 0.00 67 1013.0
20260905034905 85 217 0.0 0.0 0.00 0.00 0.00 63 1013.1
20260905034404 85 218 0.0 0.0 0.00 0.00 0.00 64 1013.1
20260905033905 85 218 0.0 0.0 0.00 0.00 0.00 63 1013.1
20260905033405 86 218 0.0 0.0 0.00 0.00 0.00 62 1013.0
20260905032905 86 218 0.0 0.0 0.00 0.00 0.00 62 1013.0
20260905032405 86 218 0.0 0.0 0.00 0.00 0.00 62 1013.0
20260905031405 86 217 0.0 0.0 0.00 0.00 0.00 62 1013.2
20260905030904 86 217 0.0 0.0 0.00 0.00 0.00 62 1013.2
20260905030405 86 217 0.0 0.0 0.00 0.00 0.00 62 1013.2
20260905025905 86 218 0.0 0.0 0.00 0.00 0.00 63 1013.2
20260905025405 85 222 0.0 1.7 0.00 0.00 0.00 63 1013.2
20260905024905 85 220 0.0 0.0 0.00 0.00 0.00 64 1013.1
20260905023905 85 217 0.0 0.0 0.00 0.00 0.00 65 1013.0
20260905023405 86 217 0.0 0.0 0.00 0.00 0.00 65 1013.0
20260905022905 86 217 0.0 0.0 0.00 0.00 0.00 65 1013.0
20260905022405 86 217 0.0 0.0 0.00 0.00 0.00 65 1012.9
20260905021905 87 217 0.0 0.0 0.00 0.00 0.00 64 1012.9
20260905021404 87 217 0.0 0.0 0.00 0.00 0.00 63 1012.8
20260905020405 87 217 0.0 0.0 0.00 0.00 0.00 63 1012.9
20260905015905 87 217 0.0 0.0 0.00 0.00 0.00 63 1012.8
20260905015404 87 217 0.0 0.0 0.00 0.00 0.00 63 1012.8
20260905014905 87 217 0.0 0.0 0.00 0.00 0.00 63 1012.7
20260905014404 87 212 0.0 0.0 0.00 0.00 0.00 62 1012.7
20260905013905 88 212 0.0 0.0 0.00 0.00 0.00 62 1012.6
20260905012405 88 212 0.0 0.0 0.00 0.00 0.00 62 1012.4
20260905011905 89 212 0.0 0.0 0.00 0.00 0.00 61 1012.5
20260905011405 89 212 0.0 0.0 0.00 0.00 0.00 61 1012.4
20260905010905 89 212 0.0 0.0 0.00 0.00 0.00 60 1012.4
20260905010404 89 212 0.0 0.0 0.00 0.00 0.00 59 1012.5
20260905005904 89 212 0.0 0.0 0.00 0.00 0.00 59 1012.5
20260905005405 89 212 0.0 0.0 0.00 0.00 0.00 58 1012.5
20260905004905 90 212 0.0 0.0 0.00 0.00 0.00 57 1012.4
20260905004405 90 212 0.0 0.0 0.00 0.00 0.00 56 1012.5
20260905003404 91 212 0.0 0.0 0.00 0.00 0.00 54 1012.3
20260905002905 91 212 0.0 0.0 0.00 0.00 0.00 54 1012.3
20260905002405 92 212 0.0 0.0 0.00 0.00 0.00 53 1012.2
20260905001904 92 212 0.0 0.0 0.00 0.00 0.00 52 1012.2
20260905001404 93 212 0.0 0.0 0.00 0.00 0.00 51 1012.1
20260905000404 94 212 0.0 0.0 0.00 0.00 0.00 50 1012.2
20260904235405 95 212 0.0 0.0 0.00 0.00 0.00 50 1012.2
20260904234905 96 212 0.0 0.0 0.00 0.00 0.00 49 1012.2
20260904233905 97 212 0.0 0.0 0.00 0.00 0.00 47 1012.2
20260904233404 97 212 0.0 0.0 0.00 0.00 0.00 47 1012.0
20260904232905 97 212 0.0 0.0 0.00 0.00 0.00 46 1012.0
20260904232405 97 212 0.0 0.0 0.00 0.00 0.00 46 1012.0
20260904231904 97 212 0.0 0.0 0.00 0.00 0.00 46 1011.9
20260904231404 97 212 0.0 0.0 0.00 0.00 0.00 45 1011.9
20260904230904 97 212 0.0 0.0 0.00 0.00 0.00 45 1011.9
20260904230405 97 212 0.0 0.0 0.00 0.00 0.00 45 1011.9
20260904225904 98 213 0.0 0.0 0.00 0.00 0.00 44 1011.8
20260904225404 98 213 0.0 0.0 0.00 0.00 0.00 43 1011.8
20260904224904 98 213 0.0 0.0 0.00 0.00 0.00 43 1011.8
20260904224405 99 213 0.0 0.0 0.00 0.00 0.00 42 1011.8
20260904223905 99 213 0.0 0.0 0.00 0.00 0.00 42 1011.7
20260904223404 100 216 0.0 0.0 0.00 0.00 0.00 42 1011.7
20260904222404 102 217 0.0 0.0 0.00 0.00 0.00 40 1011.6
20260904221905 102 217 0.0 0.0 0.00 0.00 0.00 39 1011.7
20260904221405 102 240 0.0 0.0 0.00 0.00 0.00 39 1011.7
20260904220904 101 240 0.0 0.0 0.00 0.00 0.00 41 1011.8
20260904220405 101 240 0.0 0.0 0.00 0.00 0.00 40 1011.8
20260904215904 100 240 0.0 0.0 0.00 0.00 0.00 40 1011.9
20260904215404 100 240 0.0 0.0 0.00 0.00 0.00 43 1011.9
20260904214905 99 240 0.0 0.0 0.00 0.00 0.00 42 1012.1
20260904214404 100 240 0.0 0.0 0.00 0.00 0.00 42 1012.2
20260904213904 101 240 0.0 0.0 0.00 0.00 0.00 40 1012.2
20260904213405 102 241 0.0 0.0 0.00 0.00 0.00 39 1012.3
20260904212905 102 241 0.0 0.0 0.00 0.00 0.00 38 1012.3
20260904211905 102 222 0.0 0.0 0.00 0.00 0.00 38 1012.4
20260904211405 102 221 0.0 0.0 0.00 0.00 0.00 38 1012.5
20260904210904 101 221 0.0 0.0 0.00 0.00 0.00 43 1012.5
20260904210405 100 221 0.0 0.0 0.00 0.00 0.00 43 1012.6
20260904205404 98 222 0.0 0.0 0.00 0.00 0.00 45 1012.8
20260904204905 98 222 0.0 0.0 0.00 0.00 0.00 44 1012.8
20260904203904 100 197 0.0 0.9 0.00 0.00 0.00 42 1012.8
20260904203404 101 229 0.0 7.0 0.00 0.00 0.00 41 1012.9
20260904202904 100 176 0.0 4.3 0.00 0.00 0.00 42 1012.9
20260904202404 100 211 0.0 0.0 0.00 0.00 0.00 42 1013.0